• In Netherlands
  • List of Countries
  • For 7 days
  • Water Temperature
  • Satellite Maps
  • Weather Map
  • Weather Widgets
  • user-avatar
    Login

    Hourly Weather Hobart

    Today, 29 April, Saturday

    Time Temperature Precipitation Wind Pressure Humidity
    00:00 +13°C° 0 mm 5 mps 745 mmHg 83%
    01:00 +13°C° 0 mm 6 mps 745 mmHg 85%
    02:00 +13°C° 0 mm 6 mps 745 mmHg 84%
    03:00 +11°C° 0 mm 7 mps 745 mmHg 83%
    04:00 +12°C° 0 mm 4 mps 745 mmHg 82%
    05:00 +12°C° 0 mm 4 mps 746 mmHg 84%
    06:00 +12°C° 0 mm 5 mps 746 mmHg 86%
    07:00 +10°C° 0 mm 5 mps 747 mmHg 88%
    08:00 +12°C° 0 mm 5 mps 747 mmHg 83%
    09:00 +13°C° 0 mm 6 mps 748 mmHg 78%
    10:00 +14°C° 0 mm 4 mps 749 mmHg 71%
    11:00 +15°C° 0 mm 5 mps 749 mmHg 68%
    12:00 +15°C° 0 mm 5 mps 749 mmHg 66%
    13:00 +16°C° 0 mm 5 mps 749 mmHg 63%
    14:00 +15°C° 0 mm 5 mps 750 mmHg 65%
    15:00 +15°C° 0 mm 4 mps 750 mmHg 67%
    16:00 +15°C° 0 mm 4 mps 750 mmHg 69%
    17:00 +13°C° 0 mm 4 mps 751 mmHg 76%
    18:00 +11°C° 0 mm 3 mps 751 mmHg 84%
    19:00 +9°C° 0 mm 3 mps 751 mmHg 91%
    20:00 +9°C° 0 mm 2 mps 752 mmHg 92%
    21:00 +8°C° 0 mm 2 mps 752 mmHg 94%
    22:00 +9°C° 0 mm 1 mps 752 mmHg 95%
    23:00 +8°C° 0 mm 1 mps 752 mmHg 95%

    Tomorrow, 30 April, Sunday

    Time Temperature Precipitation Wind Pressure Humidity
    00:00 +8°C° 0 mm 1 mps 752 mmHg 95%
    01:00 +8°C° 0 mm 1 mps 752 mmHg 95%
    02:00 +7°C° 0 mm 2 mps 751 mmHg 95%
    03:00 +7°C° 0 mm 2 mps 751 mmHg 95%
    04:00 +6°C° 0 mm 2 mps 751 mmHg 96%
    05:00 +6°C° 0 mm 2 mps 751 mmHg 96%
    06:00 +6°C° 0 mm 2 mps 751 mmHg 96%
    07:00 +6°C° 0 mm 2 mps 751 mmHg 96%
    08:00 +8°C° 0 mm 2 mps 751 mmHg 88%
    09:00 +12°C° 0 mm 2 mps 750 mmHg 80%
    10:00 +14°C° 0 mm 2 mps 750 mmHg 72%
    11:00 +16°C° 0 mm 2 mps 750 mmHg 67%
    12:00 +17°C° 0 mm 2 mps 749 mmHg 61%
    13:00 +18°C° 0 mm 2 mps 749 mmHg 55%
    14:00 +18°C° 0 mm 2 mps 748 mmHg 58%
    15:00 +17°C° 0 mm 2 mps 748 mmHg 60%
    16:00 +17°C° 0 mm 2 mps 747 mmHg 63%
    17:00 +15°C° 0 mm 2 mps 747 mmHg 72%
    18:00 +13°C° 0 mm 2 mps 747 mmHg 81%
    19:00 +9°C° 0 mm 2 mps 747 mmHg 91%
    20:00 +9°C° 0 mm 2 mps 747 mmHg 92%
    21:00 +9°C° 0 mm 3 mps 747 mmHg 92%
    22:00 +9°C° 0 mm 3 mps 747 mmHg 93%
    23:00 +9°C° 0 mm 3 mps 746 mmHg 91%

    Day after tomorrow, 1 May, Monday

    Time Temperature Precipitation Wind Pressure Humidity
    00:00 +8°C° 0 mm 4 mps 745 mmHg 90%
    01:00 +10°C° 0 mm 4 mps 745 mmHg 88%
    02:00 +10°C° 0 mm 4 mps 744 mmHg 87%
    03:00 +11°C° 0 mm 4 mps 743 mmHg 86%
    04:00 +12°C° 0 mm 4 mps 743 mmHg 85%
    05:00 +12°C° 0 mm 5 mps 742 mmHg 83%
    06:00 +12°C° 0 mm 5 mps 742 mmHg 82%
    07:00 +12°C° 0 mm 5 mps 742 mmHg 80%
    08:00 +14°C° 0 mm 6 mps 741 mmHg 75%
    09:00 +15°C° 0 mm 7 mps 741 mmHg 69%
    10:00 +17°C° 0 mm 8 mps 740 mmHg 63%
    11:00 +16°C° 0.3 mm 7 mps 740 mmHg 68%
    12:00 +15°C° 0.3 mm 7 mps 740 mmHg 73%
    13:00 +15°C° 0.3 mm 7 mps 740 mmHg 78%
    14:00 +14°C° 0.2 mm 6 mps 740 mmHg 80%
    15:00 +13°C° 0.2 mm 6 mps 740 mmHg 81%
    16:00 +12°C° 0.2 mm 5 mps 740 mmHg 82%
    17:00 +10°C° 0.1 mm 5 mps 740 mmHg 84%
    18:00 +9°C° 0.1 mm 5 mps 741 mmHg 86%
    19:00 +8°C° 0.1 mm 5 mps 741 mmHg 89%
    20:00 +8°C° 0.1 mm 6 mps 742 mmHg 87%
    21:00 +8°C° 0.1 mm 6 mps 742 mmHg 86%
    22:00 +8°C° 0.1 mm 7 mps 743 mmHg 84%
    23:00 +6°C° 0 mm 7 mps 743 mmHg 83%

    2 May, Tuesday

    Time Temperature Precipitation Wind Pressure Humidity
    00:00 +6°C° 0 mm 7 mps 744 mmHg 82%
    01:00 +6°C° 0 mm 7 mps 744 mmHg 81%
    02:00 +5°C° 0 mm 7 mps 744 mmHg 80%
    03:00 +5°C° 0 mm 7 mps 744 mmHg 80%
    04:00 +4°C° 0 mm 7 mps 744 mmHg 80%
    05:00 +4°C° 0 mm 7 mps 744 mmHg 80%
    06:00 +4°C° 0 mm 7 mps 745 mmHg 79%
    07:00 +4°C° 0 mm 7 mps 745 mmHg 79%
    08:00 +5°C° 0 mm 7 mps 746 mmHg 72%
    09:00 +6°C° 0 mm 8 mps 746 mmHg 64%
    10:00 +8°C° 0 mm 9 mps 747 mmHg 57%
    11:00 +9°C° 0 mm 8 mps 747 mmHg 54%
    12:00 +9°C° 0 mm 8 mps 747 mmHg 51%
    13:00 +10°C° 0 mm 8 mps 747 mmHg 48%
    14:00 +9°C° 0 mm 8 mps 748 mmHg 51%
    15:00 +9°C° 0 mm 7 mps 748 mmHg 54%
    16:00 +8°C° 0 mm 7 mps 748 mmHg 57%
    17:00 +6°C° 0.1 mm 7 mps 749 mmHg 64%
    18:00 +5°C° 0.1 mm 6 mps 750 mmHg 70%
    19:00 +5°C° 0.1 mm 6 mps 750 mmHg 76%
    20:00 +4°C° 0.1 mm 6 mps 751 mmHg 77%
    21:00 +4°C° 0.1 mm 6 mps 752 mmHg 79%
    22:00 +4°C° 0.1 mm 6 mps 752 mmHg 81%
    23:00 +4°C° 0.1 mm 6 mps 752 mmHg 80%

    3 May, Wednesday

    Time Temperature Precipitation Wind Pressure Humidity
    00:00 +4°C° 0.1 mm 6 mps 753 mmHg 79%
    01:00 +5°C° 0.1 mm 6 mps 753 mmHg 78%
    02:00 +4°C° 0 mm 6 mps 753 mmHg 79%
    03:00 +4°C° 0 mm 6 mps 753 mmHg 80%
    04:00 +4°C° 0 mm 6 mps 754 mmHg 81%
    05:00 +4°C° 0 mm 6 mps 754 mmHg 81%
    06:00 +5°C° 0 mm 5 mps 755 mmHg 81%
    07:00 +3°C° 0 mm 5 mps 756 mmHg 81%
    08:00 +6°C° 0 mm 5 mps 756 mmHg 75%
    09:00 +7°C° 0 mm 5 mps 757 mmHg 70%
    10:00 +8°C° 0 mm 5 mps 757 mmHg 64%
    11:00 +8°C° 0 mm 5 mps 757 mmHg 63%
    12:00 +9°C° 0 mm 5 mps 757 mmHg 62%
    13:00 +9°C° 0 mm 5 mps 757 mmHg 61%
    14:00 +9°C° 0 mm 5 mps 758 mmHg 61%
    15:00 +10°C° 0 mm 4 mps 758 mmHg 62%
    16:00 +10°C° 0 mm 4 mps 758 mmHg 62%
    17:00 +9°C° 0 mm 3 mps 759 mmHg 69%
    18:00 +7°C° 0 mm 3 mps 759 mmHg 76%
    19:00 +5°C° 0 mm 3 mps 760 mmHg 83%
    20:00 +5°C° 0 mm 2 mps 760 mmHg 85%
    21:00 +5°C° 0 mm 2 mps 760 mmHg 86%
    22:00 +4°C° 0 mm 2 mps 761 mmHg 88%
    23:00 +4°C° 0 mm 2 mps 761 mmHg 89%

    4 May, Thursday

    Time Temperature Precipitation Wind Pressure Humidity
    00:00 +4°C° 0 mm 2 mps 761 mmHg 90%
    01:00 +3°C° 0 mm 2 mps 761 mmHg 91%
    02:00 +3°C° 0 mm 2 mps 761 mmHg 92%
    03:00 +3°C° 0 mm 2 mps 761 mmHg 93%
    04:00 +2°C° 0 mm 2 mps 761 mmHg 94%
    05:00 +2°C° 0 mm 2 mps 761 mmHg 94%
    06:00 +2°C° 0 mm 2 mps 761 mmHg 94%
    07:00 +1°C° 0 mm 2 mps 761 mmHg 94%
    08:00 +5°C° 0 mm 1 mps 762 mmHg 82%
    09:00 +8°C° 0 mm 1 mps 762 mmHg 71%
    10:00 +11°C° 0 mm 1 mps 762 mmHg 60%
    11:00 +13°C° 0 mm 1 mps 762 mmHg 55%
    12:00 +14°C° 0 mm 1 mps 761 mmHg 50%
    13:00 +15°C° 0 mm 1 mps 761 mmHg 46%
    14:00 +14°C° 0 mm 1 mps 761 mmHg 50%
    15:00 +14°C° 0 mm 1 mps 760 mmHg 55%
    16:00 +13°C° 0 mm 1 mps 760 mmHg 59%
    17:00 +10°C° 0 mm 2 mps 760 mmHg 69%
    18:00 +7°C° 0 mm 2 mps 760 mmHg 78%
    19:00 +5°C° 0 mm 2 mps 761 mmHg 87%
    20:00 +4°C° 0 mm 2 mps 761 mmHg 88%
    21:00 +4°C° 0 mm 2 mps 760 mmHg 90%
    22:00 +3°C° 0 mm 2 mps 760 mmHg 91%
    23:00 +4°C° 0 mm 2 mps 760 mmHg 91%
    Show more